When you browse on this site, cookies collect data to enhance your experience and personalize the content and advertising you see.
Visit our Privacy Policy to learn more. By continuing to use the site, you agree to this use of cookies and data.
  • In Austria
  • List of Countries
  • For 7 days
  • Water Temperature
  • Weather Map
  • News
  • Weather Widgets
  • user-avatar
    Login

    Hourly Weather Uige

    Today, 5 December, Thursday

    Time Temperature Precipitation Wind Pressure Humidity
    00:00 +20°C° 0.1 mm 0 mps 690 mmHg 98%
    01:00 +20°C° 0 mm 0 mps 690 mmHg 98%
    02:00 +20°C° 0 mm 0 mps 690 mmHg 98%
    03:00 +19°C° 0 mm 0 mps 690 mmHg 99%
    04:00 +19°C° 0 mm 0 mps 689 mmHg 99%
    05:00 +19°C° 0 mm 0 mps 690 mmHg 98%
    06:00 +20°C° 0 mm 0 mps 690 mmHg 98%
    07:00 +22°C° 0 mm 1 mps 691 mmHg 97%
    08:00 +24°C° 0 mm 1 mps 691 mmHg 88%
    09:00 +26°C° 0 mm 1 mps 691 mmHg 78%
    10:00 +28°C° 0 mm 1 mps 691 mmHg 69%
    11:00 +28°C° 0.3 mm 1 mps 691 mmHg 69%
    12:00 +29°C° 0.3 mm 1 mps 690 mmHg 69%
    13:00 +29°C° 0 mm 2 mps 690 mmHg 63%
    14:00 +28°C° 0.7 mm 2 mps 690 mmHg 70%
    15:00 +28°C° 0.7 mm 2 mps 689 mmHg 78%
    16:00 +27°C° 0.7 mm 2 mps 689 mmHg 85%
    17:00 +25°C° 0.6 mm 1 mps 689 mmHg 89%
    18:00 +24°C° 0.6 mm 1 mps 690 mmHg 93%
    19:00 +20°C° 0.6 mm 0 mps 690 mmHg 96%
    20:00 +20°C° 0 mm 0 mps 690 mmHg 97%
    21:00 +22°C° 0 mm 1 mps 691 mmHg 97%
    22:00 +22°C° 0 mm 1 mps 691 mmHg 97%
    23:00 +21°C° 0.2 mm 1 mps 691 mmHg 98%

    Tomorrow, 6 December, Friday

    Time Temperature Precipitation Wind Pressure Humidity
    00:00 +19°C° 0.2 mm 0 mps 690 mmHg 98%
    01:00 +19°C° 0.2 mm 0 mps 690 mmHg 98%
    02:00 +19°C° 0 mm 0 mps 690 mmHg 98%
    03:00 +19°C° 0 mm 0 mps 690 mmHg 98%
    04:00 +19°C° 0 mm 0 mps 690 mmHg 98%
    05:00 +19°C° 0 mm 0 mps 690 mmHg 98%
    06:00 +19°C° 0 mm 0 mps 691 mmHg 97%
    07:00 +19°C° 0 mm 0 mps 691 mmHg 97%
    08:00 +22°C° 0 mm 1 mps 691 mmHg 92%
    09:00 +23°C° 0 mm 1 mps 692 mmHg 86%
    10:00 +25°C° 0 mm 1 mps 692 mmHg 80%
    11:00 +26°C° 0 mm 1 mps 692 mmHg 75%
    12:00 +27°C° 0 mm 2 mps 691 mmHg 69%
    13:00 +28°C° 0 mm 2 mps 691 mmHg 64%
    14:00 +28°C° 0.5 mm 2 mps 690 mmHg 69%
    15:00 +27°C° 0.5 mm 2 mps 690 mmHg 75%
    16:00 +27°C° 0.5 mm 2 mps 689 mmHg 81%
    17:00 +25°C° 0.4 mm 1 mps 689 mmHg 87%
    18:00 +24°C° 0.4 mm 1 mps 689 mmHg 92%
    19:00 +22°C° 0.4 mm 1 mps 689 mmHg 98%
    20:00 +22°C° 0 mm 1 mps 690 mmHg 98%
    21:00 +22°C° 0 mm 1 mps 690 mmHg 98%
    22:00 +22°C° 0 mm 1 mps 691 mmHg 98%
    23:00 +22°C° 0.1 mm 1 mps 691 mmHg 99%

    Day after tomorrow, 7 December, Saturday

    Time Temperature Precipitation Wind Pressure Humidity
    00:00 +22°C° 0.1 mm 1 mps 690 mmHg 99%
    01:00 +22°C° 0.1 mm 1 mps 690 mmHg 99%
    02:00 +22°C° 0.1 mm 1 mps 690 mmHg 99%
    03:00 +22°C° 0.1 mm 1 mps 690 mmHg 99%
    04:00 +22°C° 0.1 mm 1 mps 690 mmHg 99%
    05:00 +22°C° 0.1 mm 1 mps 690 mmHg 99%
    06:00 +22°C° 0.1 mm 1 mps 691 mmHg 98%
    07:00 +22°C° 0.1 mm 1 mps 691 mmHg 98%
    08:00 +23°C° 0.1 mm 1 mps 691 mmHg 94%
    09:00 +24°C° 0.1 mm 1 mps 691 mmHg 90%
    10:00 +25°C° 0.1 mm 1 mps 691 mmHg 86%
    11:00 +26°C° 0.1 mm 1 mps 691 mmHg 80%
    12:00 +27°C° 0.1 mm 2 mps 690 mmHg 74%
    13:00 +28°C° 0.1 mm 2 mps 690 mmHg 69%
    14:00 +27°C° 0.5 mm 2 mps 690 mmHg 75%
    15:00 +26°C° 0.5 mm 2 mps 689 mmHg 82%
    16:00 +26°C° 0.5 mm 2 mps 689 mmHg 88%
    17:00 +24°C° 0.2 mm 2 mps 689 mmHg 92%
    18:00 +23°C° 0.2 mm 1 mps 689 mmHg 95%
    19:00 +22°C° 0.2 mm 1 mps 690 mmHg 98%
    20:00 +22°C° 0.1 mm 1 mps 690 mmHg 98%
    21:00 +21°C° 0.1 mm 1 mps 690 mmHg 98%
    22:00 +19°C° 0.1 mm 0 mps 691 mmHg 98%
    23:00 +21°C° 0 mm 1 mps 691 mmHg 99%

    8 December, Sunday

    Time Temperature Precipitation Wind Pressure Humidity
    00:00 +21°C° 0 mm 1 mps 690 mmHg 99%
    01:00 +21°C° 0 mm 1 mps 690 mmHg 99%
    02:00 +21°C° 0.1 mm 1 mps 690 mmHg 99%
    03:00 +21°C° 0.1 mm 1 mps 690 mmHg 99%
    04:00 +21°C° 0.1 mm 1 mps 690 mmHg 99%
    05:00 +21°C° 0 mm 1 mps 690 mmHg 98%
    06:00 +21°C° 0 mm 1 mps 691 mmHg 98%
    07:00 +19°C° 0 mm 0 mps 691 mmHg 97%
    08:00 +24°C° 0 mm 1 mps 691 mmHg 87%
    09:00 +26°C° 0 mm 1 mps 692 mmHg 76%
    10:00 +28°C° 0 mm 1 mps 692 mmHg 66%
    11:00 +29°C° 0 mm 2 mps 691 mmHg 63%
    12:00 +29°C° 0 mm 2 mps 691 mmHg 60%
    13:00 +30°C° 0 mm 2 mps 690 mmHg 57%
    14:00 +29°C° 0.2 mm 2 mps 689 mmHg 63%
    15:00 +29°C° 0.2 mm 2 mps 689 mmHg 69%
    16:00 +28°C° 0.2 mm 2 mps 688 mmHg 76%
    17:00 +26°C° 0.4 mm 2 mps 689 mmHg 82%
    18:00 +24°C° 0.4 mm 2 mps 689 mmHg 89%
    19:00 +22°C° 0.4 mm 1 mps 689 mmHg 96%
    20:00 +22°C° 0 mm 1 mps 690 mmHg 97%
    21:00 +22°C° 0 mm 1 mps 690 mmHg 97%
    22:00 +19°C° 0 mm 0 mps 690 mmHg 98%
    23:00 +19°C° 0 mm 0 mps 690 mmHg 98%

    9 December, Monday

    Time Temperature Precipitation Wind Pressure Humidity
    00:00 +18°C° 0 mm 0 mps 690 mmHg 99%
    01:00 +18°C° 0 mm 0 mps 690 mmHg 99%
    02:00 +18°C° 0 mm 0 mps 690 mmHg 98%
    03:00 +18°C° 0 mm 0 mps 689 mmHg 98%
    04:00 +20°C° 0 mm 1 mps 689 mmHg 98%
    05:00 +21°C° 0 mm 1 mps 690 mmHg 97%
    06:00 +21°C° 0 mm 1 mps 690 mmHg 96%
    07:00 +21°C° 0 mm 1 mps 690 mmHg 95%
    08:00 +23°C° 0 mm 1 mps 691 mmHg 82%
    09:00 +26°C° 0 mm 1 mps 691 mmHg 69%
    10:00 +28°C° 0 mm 1 mps 692 mmHg 56%
    11:00 +29°C° 0 mm 2 mps 691 mmHg 53%
    12:00 +30°C° 0 mm 2 mps 691 mmHg 50%
    13:00 +30°C° 0 mm 3 mps 690 mmHg 46%
    14:00 +30°C° 0 mm 3 mps 690 mmHg 50%
    15:00 +29°C° 0 mm 3 mps 689 mmHg 54%
    16:00 +29°C° 0 mm 3 mps 689 mmHg 57%
    17:00 +27°C° 0 mm 2 mps 689 mmHg 66%
    18:00 +25°C° 0 mm 2 mps 689 mmHg 75%
    19:00 +23°C° 0 mm 1 mps 689 mmHg 84%
    20:00 +22°C° 0 mm 1 mps 689 mmHg 88%
    21:00 +21°C° 0 mm 1 mps 690 mmHg 91%
    22:00 +18°C° 0 mm 0 mps 690 mmHg 94%
    23:00 +18°C° 0 mm 0 mps 690 mmHg 96%

    10 December, Tuesday

    Time Temperature Precipitation Wind Pressure Humidity
    00:00 +18°C° 0 mm 0 mps 690 mmHg 97%
    01:00 +17°C° 0 mm 0 mps 690 mmHg 99%
    02:00 +18°C° 0 mm 0 mps 690 mmHg 98%
    03:00 +18°C° 0 mm 0 mps 690 mmHg 97%
    04:00 +18°C° 0 mm 0 mps 689 mmHg 96%
    05:00 +20°C° 0 mm 1 mps 690 mmHg 94%
    06:00 +21°C° 0 mm 1 mps 690 mmHg 91%
    07:00 +21°C° 0 mm 1 mps 691 mmHg 89%
    08:00 +24°C° 0 mm 1 mps 691 mmHg 79%
    09:00 +26°C° 0 mm 1 mps 691 mmHg 68%
    10:00 +29°C° 0 mm 1 mps 692 mmHg 57%
    11:00 +29°C° 0 mm 2 mps 691 mmHg 56%
    12:00 +30°C° 0 mm 2 mps 691 mmHg 54%
    13:00 +30°C° 0 mm 3 mps 690 mmHg 52%
    14:00 +29°C° 0 mm 3 mps 690 mmHg 56%
    15:00 +29°C° 0 mm 3 mps 689 mmHg 59%
    16:00 +28°C° 0 mm 3 mps 689 mmHg 63%
    17:00 +26°C° 0 mm 2 mps 689 mmHg 72%
    18:00 +24°C° 0 mm 2 mps 689 mmHg 81%
    19:00 +22°C° 0 mm 1 mps 689 mmHg 89%
    20:00 +22°C° 0 mm 1 mps 690 mmHg 92%
    21:00 +21°C° 0 mm 1 mps 690 mmHg 94%
    22:00 +20°C° 0 mm 1 mps 691 mmHg 97%
    23:00 +20°C° 0 mm 1 mps 691 mmHg 97%
    Show more